Location: St. Louis
(38.6270°N, 90.1994°W)
Time: 07:10:18
(UTC-06:00)

deb Explorer IX - Pass Details

Date: 07 December 2021
Orbit: 544 x 1082 km, 38.8° (Epoch: 19 January)

Event Time Altitude Azimuth Distance (km) Brightness Sun altitude
Rises 13:07:59 0° 281° (W) 2,856 ? 26.2°
Reaches altitude 10° 13:10:27 10° 274° (W) 1,894 ? 26.0°
Maximum altitude 13:14:31 44° 203° (SSW) 774 ? 25.7°
Drops below altitude 10° 13:18:23 10° 130° (SE) 1,798 ? 25.5°
Sets 13:20:40 0° 124° (SE) 2,692 ? 25.3°
